Lid_Strength_Index
5 6 6 6 6 6 6 6 6 5 4 4 4 4 3 3 2 2 1 1 1 1 0 1 1 1 1 1 1 1 2 2 4 3 1 0 0 0 -0 -1 -1 -1 -1
6 6 7 7 7 7 7 6 5 5 5 5 4 4 4 3 3 3 2 1 1 1 1 1 2 1 1 1 2 2 2 2 3 4 2 2 1 -0 -0 -0 -0 -0 -1
6 6 7 7 8 8 7 6 6 5 4 5 5 5 4 4 3 3 3 2 2 2 2 2 2 1 2 1 1 1 2 2 2 3 3 2 1 1 1 0 0 -0 -1
6 7 7 7 7 7 6 6 6 5 5 5 5 5 4 3 3 3 3 3 2 2 2 2 2 2 2 1 2 2 2 2 3 3 2 2 2 1 1 2 2 0 1
7 7 7 7 7 6 7 6 6 6 5 5 5 4 4 3 3 2 3 3 3 3 3 3 3 2 1 1 1 2 2 2 2 3 3 3 2 2 3 2 2 1 1
7 7 7 6 6 6 7 7 6 6 6 5 5 5 4 3 4 4 3 3 3 4 4 3 2 2 1 0 1 1 2 2 2 3 3 3 3 2 2 2 2 3 4
6 7 6 6 6 6 6 7 7 7 6 6 5 5 4 4 5 5 4 3 3 5 3 3 1 1 1 1 2 1 1 1 2 1 2 3 3 2 2 3 2 2 2
6 6 6 6 6 6 6 7 7 7 7 7 6 5 4 4 5 5 5 3 3 3 2 2 2 1 2 3 2 1 1 1 1 1 2 1 1 0 1 1 1 1 1
6 6 5 5 6 6 6 6 7 7 7 7 6 5 4 4 5 6 5 3 3 2 2 2 2 2 6 7 2 2 3 2 2 3 3 4 5 5 3 1 2 3 4
6 6 5 4 5 6 6 6 6 7 7 7 6 5 5 4 6 6 6 4 3 3 3 3 4 3 7 8 2 2 2 2 1 1 1 2 2 2 3 1 1 3 3
4 4 5 5 4 5 5 6 6 7 7 8 7 6 6 5 5 6 7 4 2 3 3 3 3 5 6 8 5 1 2 2 2 1 2 1 1 2 1 0 0 1 2
4 4 4 4 5 4 6 5 6 7 7 8 8 7 7 6 6 5 6 7 5 2 2 2 3 6 6 7 6 7 7 4 2 2 2 2 1 1 1 0 1 -0 0
4 5 5 4 4 5 5 6 6 6 8 8 8 8 8 7 6 6 6 6 6 3 2 3 6 7 7 6 6 6 5 1 1 2 2 2 1 1 1 1 0 0 1
4 5 4 4 5 4 6 5 6 6 6 7 8 8 8 7 7 5 3 3 5 3 4 3 4 5 6 5 4 3 2 1 1 2 2 2 1 1 2 1 1 1 2
5 4 4 4 4 5 5 5 6 5 5 6 6 7 7 7 7 7 6 4 3 5 6 4 3 3 3 3 2 2 2 1 1 1 1 2 2 2 1 1 2 2 3
9 7 6 5 4 4 4 5 7 8 8 9 9 8 6 9 10 10 10 9 9 8 6 4 3 3 3 3 2 2 2 2 1 1 1 1 2 2 2 1 2 2 2
12 10 9 8 7 7 6 4 5 4 9 9 10 10 11 9 11 11 11 11 11 10 5 3 3 3 3 2 2 2 3 1 1 1 1 1 1 1 2 2 2 2 2
12 11 11 9 9 8 8 8 7 7 6 5 7 10 10 11 11 11 12 10 9 10 6 4 3 3 2 2 2 2 2 1 1 1 1 1 1 2 2 2 2 2 2
12 11 12 11 11 11 11 10 9 10 9 8 7 7 8 11 11 12 12 7 7 7 6 5 3 2 2 2 1 2 1 2 1 1 1 1 1 1 2 2 2 5 4
12 11 12 13 13 12 12 12 12 11 11 11 10 9 8 9 9 9 10 8 7 6 5 5 4 2 2 2 1 2 2 2 2 1 1 1 1 1 2 2 2 2 2
12 12 13 13 13 13 13 13 13 12 12 11 11 11 13 11 11 9 7 8 8 7 6 5 5 4 2 2 2 2 2 1 1 1 1 1 1 1 1 1 1 1 2
13 12 13 13 13 13 13 13 13 13 13 13 12 11 12 11 11 10 9 8 7 6 6 5 5 4 3 2 2 2 2 2 1 1 1 1 1 1 1 1 1 1 2
13 12 12 12 12 13 12 13 13 13 13 12 12 12 11 11 11 11 11 10 9 8 6 5 5 5 4 3 1 1 1 1 1 0 1 1 1 2 1 1 1 2 2
12 12 11 11 11 11 11 11 11 12 12 12 11 11 11 11 10 9 10 11 10 9 8 6 5 5 4 3 3 1 1 0 -0 0 0 1 1 3 2 2 1 1 2
11 10 10 10 10 10 10 9 9 9 9 9 9 9 10 11 11 11 10 10 10 10 9 8 6 5 4 3 3 2 3 8 1 3 -0 0 1 1 2 2 2 1 1
9 9 9 9 9 9 9 9 9 9 9 9 9 9 9 9 9 9 10 9 8 10 8 8 7 6 4 4 3 5 8 8 5 8 0 0 1 1 1 1 1 1 1